Date,TemperatureHighF,TemperatureAvgF,TemperatureLowF,DewpointHighF,DewpointAvgF,DewpointLowF,HumidityHigh,HumidityAvg,HumidityLow,PressureMaxIn,PressureMinIn,WindSpeedMaxMPH,WindSpeedAvgMPH,GustSpeedMaxMPH,PrecipitationSumIn
2013-1-1,37.7,32.2,18.4,28.5,23.6,14.0,87,70,62,29.46,29.03,28,9,29,0.01
2013-1-2,27.5,22.5,11.2,25.0,18.7,8.8,95,85,75,29.31,29.05,13,2,13,0.00
2013-1-3,31.3,28.1,21.6,27.3,23.2,19.0,94,82,70,29.42,29.30,23,7,23,0.00
2013-1-4,30.6,28.9,26.7,25.7,23.5,19.4,91,80,70,29.54,29.42,22,8,23,0.00
2013-1-5,32.9,30.1,27.1,26.7,22.9,19.3,90,75,65,29.51,29.21,21,10,24,0.00
2013-1-6,27.4,24.5,21.9,24.5,22.4,18.9,96,92,77,29.29,29.22,11,2,13,0.00
2013-1-7,22.2,13.6,2.9,21.2,11.7,0.3,96,92,88,29.59,29.26,4,0,4,0.00
2013-1-8,16.9,13.9,7.2,15.1,12.0,4.6,94,92,88,29.99,29.59,6,0,7,0.00
2013-1-9,22.4,16.1,4.4,19.1,12.7,1.6,94,87,74,30.01,29.52,23,4,25,0.00
2013-1-10,26.2,23.2,20.1,25.0,21.1,18.6,96,92,86,29.72,29.45,30,8,31,0.00
2013-1-11,30.2,25.4,22.1,29.1,23.9,19.9,100,94,91,29.77,29.37,33,11,33,0.00
2013-1-12,32.3,28.3,24.2,31.5,26.7,23.0,97,93,87,29.78,29.01,29,10,29,0.00
2013-1-13,34.1,29.0,19.9,33.6,27.4,17.7,98,94,85,29.26,29.01,25,11,26,0.42
2013-1-14,20.0,14.1,7.6,17.8,11.4,4.0,92,89,83,29.73,29.19,18,5,18,0.00
2013-1-15,8.6,4.2,-0.1,5.9,0.9,-4.3,90,86,81,30.15,29.72,13,2,14,0.00
2013-1-16,2.4,-6.3,-15.8,-0.9,-9.7,-19.4,95,85,80,30.25,30.15,11,1,12,0.00
2013-1-17,-0.9,-15.4,-22.3,-3.6,-19.1,-26.5,98,83,80,30.36,30.23,16,0,17,0.00
2013-1-18,9.8,4.1,-1.0,-3.1,-7.7,-11.2,86,58,46,30.51,30.34,28,10,30,0.00
2013-1-19,22.5,11.5,5.5,17.5,0.4,-7.3,86,61,45,30.36,29.65,37,18,39,0.00
2013-1-20,28.1,24.4,18.2,24.8,21.3,15.2,93,88,81,29.86,29.56,39,13,39,0.00
2013-1-21,33.2,28.7,19.4,26.9,21.4,13.6,84,74,59,29.90,29.79,24,5,24,0.00
2013-1-22,26.4,21.5,16.7,14.8,11.2,7.7,72,64,58,29.80,29.61,29,5,29,0.00
2013-1-23,20.8,16.6,12.5,10.6,6.6,-0.6,80,64,51,29.71,29.61,36,7,37,0.00
2013-1-24,13.8,9.4,3.0,1.5,-9.6,-14.3,60,41,29,30.15,29.67,44,13,45,0.00
2013-1-25,11.4,6.1,-0.7,-4.2,-8.2,-11.9,67,51,41,30.21,30.15,28,6,28,0.00
2013-1-26,2.5,-12.6,-21.0,-10.9,-19.3,-26.2,81,72,53,30.38,30.19,7,0,8,0.00
2013-1-27,8.2,-6.0,-22.1,-7.2,-16.0,-27.2,92,63,41,30.60,30.38,25,6,28,0.00
2013-1-28,13.1,9.3,5.0,-6.2,-8.7,-11.0,54,43,35,30.58,29.97,40,16,44,0.00
2013-1-29,11.0,8.0,4.4,-0.5,-7.1,-9.4,66,49,41,29.98,29.54,45,20,48,0.00
2013-1-30,19.8,15.1,7.2,14.9,10.1,-2.9,92,80,62,29.56,29.48,21,3,23,0.00
2013-1-31,18.9,12.7,-9.4,16.3,9.7,-12.7,98,87,83,30.04,29.56,8,2,11,0.00
2013-2-1,21.6,2.3,-10.2,10.5,-2.0,-13.7,95,82,58,30.11,29.72,15,4,19,0.00
2013-2-2,20.1,17.8,14.5,12.8,10.1,5.0,83,72,57,29.72,29.44,27,2,28,0.00
2013-2-3,24.0,21.1,17.8,19.9,17.2,12.2,88,85,78,29.48,29.40,9,1,10,0.00
2013-2-4,25.7,21.1,18.7,19.1,16.1,12.0,90,81,68,29.55,29.48,24,2,25,0.00
2013-2-5,23.1,19.3,7.9,18.1,12.7,0.2,82,75,67,29.71,29.54,29,5,30,0.00
2013-2-6,8.7,0.9,-11.6,2.6,-7.0,-16.1,88,69,53,29.80,29.65,25,3,27,0.00
2013-2-7,8.1,4.7,-1.8,-1.6,-6.0,-12.1,68,60,51,29.66,29.34,43,16,43,0.00
2013-2-8,-1.4,-4.6,-8.9,-7.1,-12.8,-18.3,79,67,60,29.70,29.44,14,2,16,0.00
2013-2-9,21.2,10.1,-2.6,16.6,5.1,-9.1,86,79,72,29.64,28.83,37,8,37,0.00
2013-2-10,26.7,17.4,-1.6,24.6,13.5,-5.6,96,84,78,29.41,28.77,28,11,29,0.00
2013-2-11,12.1,-0.3,-18.0,9.5,-4.6,-22.2,90,82,70,29.57,29.41,28,6,28,0.00
2013-2-12,20.5,10.3,-0.1,18.0,6.9,-3.4,92,86,77,29.60,29.45,25,5,28,0.00
2013-2-13,18.9,6.2,-0.3,16.5,2.8,-5.5,92,85,72,29.65,29.50,22,6,23,0.00
2013-2-14,4.1,-5.8,-28.9,-1.5,-10.4,-34.4,87,80,70,29.65,29.50,10,1,12,0.00
2013-2-15,-3.0,-9.6,-28.3,-8.2,-14.1,-33.1,85,80,71,30.00,29.60,6,1,6,0.00
2013-2-16,-2.4,-16.6,-29.6,-9.4,-22.0,-34.8,95,76,60,30.20,30.00,7,1,7,0.00
2013-2-17,-3.9,-19.0,-29.0,-12.1,-24.8,-34.6,82,74,61,30.44,30.20,7,1,8,0.00
2013-2-18,11.0,-9.7,-26.5,-3.7,-18.6,-31.8,84,66,47,30.44,30.01,18,2,18,0.00
2013-2-19,12.3,7.3,3.3,-0.9,-5.2,-9.2,65,56,44,30.01,29.48,34,13,35,0.00
2013-2-20,14.5,9.2,5.9,2.8,-1.3,-5.2,70,61,53,29.49,29.35,38,17,41,0.00
2013-2-21,10.6,5.0,-5.6,-2.9,-6.5,-13.8,68,58,48,29.54,29.40,31,7,33,0.00
2013-2-22,3.7,-10.4,-21.2,-8.8,-18.0,-26.6,81,69,52,29.59,29.44,8,1,9,0.00
2013-2-23,-4.0,-14.5,-24.9,-11.6,-21.2,-30.2,83,71,57,29.44,29.31,15,4,15,0.00
2013-2-24,-2.0,-17.7,-27.6,-12.0,-23.8,-33.4,92,73,57,29.73,29.40,4,0,5,0.00
2013-2-25,-6.4,-16.9,-26.5,-17.2,-23.6,-32.0,92,71,55,30.03,29.73,11,4,12,0.00
2013-2-26,21.2,-3.8,-26.0,3.4,-16.0,-31.9,79,58,26,30.03,29.51,31,4,31,0.00
2013-2-27,25.0,18.0,0.6,11.7,6.3,-4.8,85,60,38,29.58,29.31,30,6,32,0.00
2013-2-28,9.8,2.8,-3.9,2.0,-3.2,-8.7,87,76,67,29.78,29.35,16,4,16,0.00
2013-3-1,7.0,-7.7,-19.2,-3.2,-13.8,-23.6,92,74,57,30.06,29.78,11,1,12,0.00
2013-3-2,24.7,5.0,-15.6,3.7,-7.4,-19.9,84,59,25,30.05,29.94,15,2,15,0.00
2013-3-3,24.7,18.4,8.9,15.1,10.7,0.3,86,72,60,30.14,29.95,20,3,20,0.00
2013-3-4,30.5,26.4,21.3,27.3,20.2,13.3,90,77,65,30.14,29.82,31,14,33,0.00
2013-3-5,33.1,31.8,30.0,32.2,30.5,27.3,97,95,90,29.82,29.56,30,16,32,0.07
2013-3-6,32.4,27.9,25.1,31.6,26.9,23.9,97,96,93,29.68,29.53,15,4,16,0.00
2013-3-7,33.1,30.3,26.7,31.7,28.4,22.4,97,93,82,29.60,29.01,30,16,31,0.01
2013-3-8,33.5,31.2,29.4,32.5,30.8,29.1,99,98,95,29.34,29.03,25,9,26,0.07
2013-3-9,29.5,18.8,12.1,29.0,17.3,9.7,100,94,89,29.80,29.34,27,7,30,0.00
2013-3-10,24.7,15.8,-2.6,23.5,12.2,-6.0,96,85,74,30.57,29.77,15,4,16,0.00
2013-3-11,14.6,1.3,-9.5,11.1,-2.7,-12.9,88,83,76,30.75,30.56,11,2,11,0.00
2013-3-12,16.0,-2.5,-17.2,10.2,-7.1,-20.9,89,81,61,30.71,30.41,6,0,6,0.00
2013-3-13,27.2,13.7,-0.1,20.2,7.8,-3.1,90,78,42,30.41,30.16,15,1,15,0.01
2013-3-14,21.5,12.4,8.3,9.5,-1.9,-7.0,66,52,39,30.22,29.90,33,16,33,0.01
2013-3-15,20.3,14.4,7.7,13.8,4.7,-4.6,90,66,46,29.94,29.68,23,7,27,0.00
2013-3-16,19.2,14.6,11.3,17.3,10.4,3.5,92,84,68,30.02,29.70,28,12,29,0.00
2013-3-17,27.2,19.1,9.0,21.8,15.6,5.4,99,86,76,30.32,30.02,22,8,25,0.00
2013-3-18,23.6,14.3,-4.9,14.7,7.7,-8.5,93,76,52,30.36,30.28,27,5,27,0.00
2013-3-19,17.7,11.5,2.0,7.0,0.8,-8.9,84,62,44,30.39,30.16,11,2,13,0.00
2013-3-20,18.4,10.0,-4.8,12.4,3.0,-11.1,92,74,54,30.17,29.96,10,2,13,0.00
2013-3-21,7.1,-4.3,-15.4,-3.8,-11.3,-20.5,85,72,58,30.04,30.00,10,2,10,0.00
2013-3-22,-1.1,-7.4,-18.3,-10.2,-15.9,-25.4,76,65,54,30.08,30.01,24,7,27,0.00
2013-3-23,5.8,-9.8,-23.7,-7.1,-17.3,-29.0,92,69,49,30.07,30.04,8,1,9,0.00
2013-3-24,1.0,-10.7,-24.4,-9.3,-18.8,-30.0,89,67,53,30.10,30.07,12,2,13,0.00
2013-3-25,3.2,-7.1,-19.0,-9.9,-15.9,-25.0,79,65,50,30.09,30.01,17,3,17,0.00
2013-3-26,2.6,-6.8,-17.2,-9.9,-15.3,-22.7,81,66,54,30.22,30.04,15,2,15,0.00
2013-3-27,2.0,-8.2,-20.7,-8.3,-15.5,-26.1,81,70,58,30.23,30.00,10,4,10,0.00
2013-3-28,23.3,5.0,-17.6,13.7,-4.4,-22.9,92,66,39,30.00,29.70,15,2,16,0.00
2013-3-29,26.6,19.7,15.9,18.0,14.3,11.1,88,79,68,29.94,29.71,11,2,11,0.03
2013-3-30,17.2,17.1,16.9,13.5,13.4,12.8,85,85,85,29.95,29.94,5,2,5,0.00
2013-4-6,6.6,3.5,0.9,-5.2,-6.2,-7.7,74,64,52,30.02,29.96,23,12,27,0.00
2013-4-7,9.6,3.5,0.5,-0.1,-4.6,-7.2,75,68,60,30.02,29.97,20,8,21,0.00
2013-4-8,12.3,2.4,-7.3,-0.7,-8.0,-14.6,73,61,50,30.02,29.87,19,4,23,0.00
2013-4-9,-2.8,-3.2,-3.6,-9.6,-10.6,-11.5,72,70,68,29.87,29.86,10,5,11,0.00
2013-4-10,11.1,3.4,-4.0,-2.4,-7.2,-12.1,76,61,47,29.87,29.59,16,4,18,0.00
2013-4-15,26.3,23.0,21.1,7.8,7.4,6.8,55,51,44,30.66,30.65,5,1,5,0.00
2013-4-16,26.0,8.3,-8.4,9.2,-2.0,-13.0,87,64,39,30.63,30.42,4,1,6,0.00
2013-4-17,34.1,14.8,-6.5,13.4,2.4,-11.8,84,61,36,30.49,30.43,11,4,17,0.00
2013-4-18,42.0,26.1,9.9,16.6,9.5,1.3,74,51,25,30.49,30.45,11,3,17,0.00
2013-4-19,35.4,17.4,5.9,12.4,6.0,-1.1,75,61,36,30.54,30.48,11,3,11,0.00
2013-4-20,40.5,23.0,11.3,20.1,12.0,6.7,83,65,36,30.46,30.39,5,1,8,0.00
2013-4-21,31.6,20.4,5.9,21.7,12.4,2.1,88,72,48,30.48,30.42,5,1,7,0.00
2013-4-22,27.2,17.3,2.1,22.8,14.2,-1.0,100,87,80,30.45,30.38,8,1,9,0.00
2013-4-23,32.2,27.7,24.2,26.8,24.9,22.5,95,89,79,30.42,30.33,10,2,12,0.00
2013-4-24,44.8,31.6,23.9,30.8,27.3,20.3,100,85,56,30.40,30.27,9,2,12,0.02
2013-4-25,38.6,27.0,15.4,25.9,20.0,11.7,92,75,52,30.41,30.12,11,2,12,0.00
2013-4-26,40.9,33.4,29.0,31.4,25.5,20.0,95,73,50,30.13,29.92,21,6,22,0.00
2013-4-27,37.5,30.9,24.3,23.4,21.1,18.1,77,67,53,30.39,30.35,8,4,15,0.00
2013-4-28,33.7,24.7,10.8,24.2,19.1,7.9,91,79,65,30.40,30.28,9,2,15,0.00
2013-4-29,34.4,28.1,22.4,25.8,23.1,16.6,100,82,65,30.28,30.18,11,1,11,0.01
2013-4-30,32.1,24.0,15.8,18.9,14.6,10.2,80,67,54,30.24,30.05,13,3,15,0.00
2013-5-1,25.1,19.9,8.6,12.1,7.5,2.7,78,59,43,30.07,29.92,27,9,27,0.00
2013-5-2,27.5,19.8,11.6,9.9,6.5,3.2,73,57,41,30.12,29.98,21,4,22,0.00
2013-5-3,31.8,15.9,2.6,20.1,7.6,-2.3,92,71,38,30.15,30.12,8,1,8,0.00
2013-5-4,36.3,21.4,5.8,23.4,12.8,2.4,88,71,38,30.14,30.08,7,2,8,0.00
2013-5-5,31.9,26.2,23.2,25.5,22.7,20.3,93,86,67,30.20,30.13,12,3,13,0.00
2013-5-6,28.6,25.5,22.7,26.8,22.5,19.6,95,88,82,30.18,30.12,13,4,13,0.01
2013-5-7,28.1,27.3,26.9,26.1,25.5,25.1,94,93,92,30.16,30.14,7,2,8,0.00
2013-5-8,32.9,30.3,27.2,29.9,27.8,24.9,95,90,86,30.33,30.23,9,4,11,0.01
2013-5-9,38.8,32.8,29.7,30.7,29.1,28.0,96,87,70,30.34,30.26,10,2,10,0.00
2013-5-10,38.6,31.8,30.3,32.4,29.2,27.7,95,90,77,30.26,30.10,7,2,10,0.00
2013-5-11,40.7,33.4,28.1,32.7,29.8,26.9,96,87,72,30.09,29.90,6,2,11,0.00
2013-5-12,32.4,28.6,24.9,29.0,21.2,13.4,96,75,52,29.92,29.80,12,5,22,0.00
2013-5-13,29.7,24.1,18.2,18.3,15.3,10.4,82,69,56,29.92,29.86,11,5,21,0.00
2013-5-14,27.1,18.9,5.9,21.2,12.5,3.1,89,76,61,29.87,29.66,7,3,12,0.00
2013-5-15,29.9,27.5,23.4,28.1,25.3,18.5,96,91,81,29.65,29.30,24,10,26,0.03
2013-5-16,29.6,19.7,12.8,28.5,13.4,3.7,96,77,53,29.61,29.29,18,5,21,0.02
2013-5-17,25.4,17.9,7.2,11.8,8.0,1.4,84,65,51,29.92,29.67,6,2,12,0.01
2013-5-18,33.2,21.4,4.7,29.8,18.0,0.8,95,86,67,30.04,29.92,12,5,20,0.11
2013-5-19,35.8,32.0,29.6,32.3,30.1,28.4,97,93,80,30.34,30.05,15,10,25,0.13
2013-5-20,35.9,33.3,30.9,33.8,31.9,29.9,97,94,86,30.34,30.06,24,14,31,0.52
2013-5-21,37.9,36.4,34.1,36.7,35.1,32.8,100,95,93,30.06,29.91,30,16,30,3.60
2013-5-22,38.2,36.7,35.0,36.9,35.4,33.7,100,95,93,29.92,29.84,26,10,26,1.13
2013-5-23,35.7,34.3,32.3,34.7,33.2,31.5,100,96,88,30.16,29.92,15,6,19,0.11
2013-5-24,38.7,35.0,32.0,33.7,32.4,31.5,98,90,79,30.17,30.01,7,1,7,0.04
2013-5-25,53.9,44.1,31.8,38.9,35.5,30.5,96,73,50,30.02,29.77,16,4,18,0.00
2013-5-26,60.5,49.1,39.3,40.5,37.7,34.9,86,66,46,29.85,29.78,12,2,12,0.00
2013-5-27,60.0,47.1,34.2,40.7,36.8,31.7,95,70,47,29.87,29.81,11,3,11,0.00
2013-5-28,61.8,52.6,31.3,40.0,36.7,29.6,100,57,37,29.89,29.83,9,2,9,0.00
2013-5-29,61.4,54.0,33.1,37.5,34.6,30.4,94,51,33,29.89,29.82,8,2,10,0.00
2013-5-30,67.5,52.7,33.3,40.3,34.8,28.1,89,54,29,29.94,29.84,18,3,21,0.00
2013-5-31,61.4,53.7,34.9,38.0,33.4,27.1,86,48,32,30.14,29.94,28,10,31,0.00
2013-6-1,71.8,56.2,32.9,40.5,34.5,29.7,92,48,23,30.16,30.00,9,2,9,0.00
2013-6-2,75.7,55.0,36.9,44.8,37.9,32.5,85,57,27,30.01,29.84,15,3,15,0.00
2013-6-3,53.5,43.0,33.9,45.2,39.2,31.9,97,87,66,29.89,29.70,9,2,9,0.00
2013-6-4,60.5,50.6,36.7,44.0,39.0,34.6,94,66,43,29.71,29.59,12,3,16,0.00
2013-6-5,50.6,41.1,30.7,41.1,35.2,29.5,100,80,61,29.81,29.61,9,2,10,0.00
2013-6-6,45.2,37.8,27.4,37.0,32.4,25.1,93,81,68,29.90,29.80,8,3,16,0.00
2013-6-7,46.4,37.1,30.1,37.5,32.9,28.9,97,85,70,30.07,29.90,14,3,14,0.00
2013-6-8,39.2,35.1,31.4,38.1,34.1,30.2,98,96,90,30.16,30.06,13,3,14,0.16
2013-6-9,40.8,37.0,34.2,39.7,36.2,33.7,98,97,94,30.30,30.14,11,3,11,0.05
2013-6-10,46.9,38.5,33.2,40.4,36.8,32.4,98,94,76,30.37,30.30,14,3,16,0.01
2013-6-11,54.4,44.0,29.7,41.3,36.5,29.0,98,77,58,30.36,30.14,9,2,12,0.00
2013-6-12,75.5,57.9,32.3,49.2,41.8,30.6,98,61,31,30.14,29.93,13,2,14,0.00
2013-6-13,75.6,68.0,48.9,46.2,42.4,37.0,74,41,26,29.98,29.94,18,4,18,0.00
2013-6-14,59.6,50.1,42.1,47.7,44.1,39.1,92,80,61,30.12,29.98,9,2,12,0.01
2013-6-15,52.9,48.6,45.6,52.1,47.8,45.1,98,97,95,30.14,29.99,19,5,25,0.85
2013-6-16,71.2,65.4,55.1,59.6,57.4,54.0,97,76,66,30.28,30.20,7,3,12,0.02
2013-6-17,86.5,73.4,53.2,62.5,57.0,50.9,94,59,34,30.20,30.03,18,3,18,0.00
2013-6-18,90.3,71.8,48.7,63.5,56.0,46.8,98,63,26,30.04,29.75,15,1,18,0.00
2013-6-19,87.6,76.6,60.2,57.8,47.4,40.8,81,38,21,29.76,29.59,21,6,21,0.00
2013-6-20,60.4,49.4,42.9,54.3,47.4,41.5,98,93,81,29.74,29.66,3,1,4,0.00
2013-6-21,64.4,56.0,47.3,52.3,47.2,43.3,99,74,50,29.86,29.73,7,2,19,0.02
2013-6-22,63.1,55.4,44.7,50.5,45.4,42.3,94,71,48,29.74,29.61,19,5,22,0.00
2013-6-23,66.2,57.8,51.3,50.8,45.9,42.2,89,65,48,29.74,29.64,12,2,14,0.00
2013-6-24,76.5,59.0,45.6,58.9,50.3,43.1,94,76,39,29.77,29.71,13,2,15,0.10
2013-6-25,73.2,66.3,53.6,53.8,47.2,42.4,79,51,40,29.75,29.67,22,6,24,0.00
2013-6-26,68.0,55.6,42.7,54.7,47.8,40.9,97,76,53,29.84,29.69,15,2,17,0.00
2013-6-27,48.9,45.2,43.1,45.5,43.4,41.3,100,94,86,30.02,29.87,7,3,13,0.11
2013-6-28,49.7,46.5,43.5,47.7,45.2,42.7,98,95,91,30.05,29.97,3,1,8,0.13
2013-6-29,56.8,50.3,43.7,54.2,49.2,42.7,99,96,89,29.98,29.62,12,4,21,0.33
2013-6-30,51.2,49.8,47.5,50.3,48.9,47.0,100,97,94,29.62,29.38,16,7,23,0.59
2013-7-1,57.5,50.9,46.1,51.0,47.1,45.6,98,87,66,29.36,29.28,8,4,18,0.02
2013-7-2,50.1,48.6,46.5,47.7,46.3,45.2,96,92,87,29.42,29.32,14,4,15,0.25
2013-7-3,45.9,44.6,43.3,45.5,43.3,41.8,100,95,92,29.66,29.48,9,3,15,0.23
2013-7-4,47.6,44.9,42.1,43.8,42.3,41.4,98,91,83,29.78,29.65,12,2,13,0.03
2013-7-5,46.8,44.9,42.7,46.0,44.1,41.6,98,97,96,29.84,29.75,8,1,8,0.32
2013-7-6,59.8,51.3,44.7,53.8,48.8,44.2,99,92,69,29.82,29.67,6,0,8,0.09
2013-7-7,58.1,52.3,47.6,54.6,50.6,46.8,100,94,77,29.67,29.62,11,0,11,0.27
2013-7-8,72.0,60.4,40.7,56.9,51.8,39.9,99,75,51,29.75,29.63,8,1,11,0.01
2013-7-9,71.8,58.8,42.5,52.6,47.3,40.8,95,68,37,29.98,29.75,13,1,14,0.00
2013-7-10,57.3,48.8,35.9,49.8,44.5,34.6,100,86,70,30.11,29.98,12,2,13,0.00
2013-7-11,65.3,52.7,36.2,54.0,45.7,35.3,99,79,45,30.10,29.99,9,0,9,0.00
2013-7-12,77.3,61.5,41.8,55.0,47.1,40.8,98,65,30,30.03,29.94,14,1,14,0.00
2013-7-13,76.1,63.2,42.4,56.0,48.1,40.8,98,62,37,29.96,29.85,12,2,12,0.00
2013-7-14,63.1,55.0,49.2,57.8,52.7,48.5,98,92,65,29.99,29.86,20,2,23,1.03
2013-7-15,49.2,49.2,49.1,48.7,48.7,48.6,98,98,98,29.98,29.98,6,1,6,0.00
2013-7-16,51.6,47.7,45.1,51.1,47.2,44.7,100,98,96,30.05,29.98,7,1,13,0.07
2013-7-17,49.2,47.0,45.1,48.3,46.2,44.6,99,97,94,30.07,30.03,4,1,11,0.01
2013-7-18,61.9,52.4,45.9,56.9,49.9,45.6,100,92,79,30.09,30.02,12,1,13,0.01
2013-7-19,54.8,49.7,47.7,51.0,48.5,46.6,100,95,86,30.17,30.06,9,1,11,0.12
2013-7-29,56.8,56.3,56.0,52.8,52.5,52.2,87,87,86,30.21,30.21,4,0,5,0.01
2013-8-3,58.3,58.2,58.2,56.9,56.8,56.5,95,95,95,29.48,29.48,0,0,0,0.41
2013-8-4,59.0,54.1,43.4,55.2,52.3,41.3,100,94,76,29.77,29.48,9,2,16,0.12
2013-8-5,60.3,51.7,40.7,57.3,49.2,39.7,100,91,82,29.78,29.71,18,3,18,0.08
2013-8-6,56.1,56.0,55.9,52.8,52.6,52.0,89,88,87,29.73,29.72,13,8,14,0.05
2013-8-7,71.0,62.6,55.5,57.9,54.0,50.4,88,74,55,29.72,29.55,20,6,21,0.00
2013-8-8,55.3,52.1,50.6,51.7,49.7,49.0,97,92,84,29.56,29.53,4,0,6,0.00
2013-8-11,61.9,58.6,54.5,56.3,53.8,51.9,97,84,74,29.96,29.87,13,2,14,1.23
2013-8-14,55.8,46.4,45.4,52.3,44.8,44.0,96,94,88,29.96,29.79,0,0,0,0.00
2013-8-16,62.7,55.8,51.4,56.1,51.5,49.2,94,86,70,29.73,29.67,9,1,9,0.00
2013-8-30,50.1,44.4,32.9,44.1,40.2,32.0,98,86,69,30.01,29.94,3,0,6,0.01
2013-8-31,54.7,47.2,41.8,44.1,41.2,38.8,96,80,63,29.94,29.80,8,3,12,0.02
2013-9-1,55.2,47.6,39.1,44.8,40.3,37.0,95,76,64,29.81,29.47,12,5,16,0.00
2013-9-2,51.7,48.1,44.4,50.3,44.0,39.8,98,86,71,29.47,29.04,19,11,24,0.11
2013-9-3,56.2,50.7,46.7,52.9,49.1,46.4,100,95,82,29.10,29.06,5,1,7,0.09
2013-9-4,54.4,49.1,44.0,52.6,48.3,42.9,100,97,91,29.41,29.10,7,1,9,0.24
2013-9-5,54.0,45.9,36.7,49.4,44.0,36.0,100,93,81,29.69,29.41,7,2,10,0.05
2013-9-6,55.9,46.0,35.5,50.2,43.7,34.7,100,92,75,29.76,29.68,6,0,7,0.00
2013-9-7,55.8,43.4,29.7,48.5,39.7,29.0,98,87,69,29.79,29.71,6,1,9,0.00
2013-9-8,56.7,39.2,27.5,43.9,33.0,26.3,97,81,36,29.74,29.68,6,2,8,0.01
2013-9-9,60.3,44.2,29.5,47.0,38.1,27.6,96,81,57,29.72,29.59,6,2,8,0.00
2013-9-10,50.5,45.9,43.5,49.4,43.7,41.0,97,92,84,29.59,29.53,4,0,6,0.05
2013-9-11,45.7,43.6,40.7,44.1,41.0,36.8,98,90,78,29.74,29.58,3,1,6,0.00
2013-9-12,48.4,43.9,33.0,47.1,42.3,31.7,98,94,80,29.78,29.66,7,1,7,0.91
2013-9-13,39.9,33.9,31.5,39.6,33.3,30.4,99,98,95,29.84,29.78,1,0,2,0.02
2013-9-14,45.8,43.2,35.1,43.1,40.1,34.1,96,89,81,30.13,30.11,3,1,4,0.00
2013-9-15,47.7,46.0,42.0,45.5,43.8,40.8,96,92,88,30.10,30.02,5,2,8,0.01
2013-9-16,54.3,44.2,35.7,45.6,39.6,32.8,100,85,62,30.02,29.89,10,2,14,0.01
2013-9-17,43.1,36.4,29.2,34.6,28.6,25.2,93,74,55,29.93,29.88,12,5,16,0.00
2013-9-18,43.8,33.4,19.1,31.6,25.9,17.1,94,75,51,29.93,29.78,7,1,8,0.00
2013-9-19,40.0,34.3,28.8,28.7,26.4,24.4,92,73,58,29.78,29.67,3,0,7,0.00
2013-9-20,37.7,29.2,17.5,27.8,22.4,15.6,94,77,56,29.67,29.30,5,1,9,0.00
2013-9-21,46.8,34.9,24.5,34.3,29.3,22.2,94,81,59,29.48,29.27,7,2,10,0.00
2013-9-22,41.3,35.0,27.3,33.9,29.6,24.4,95,81,60,29.62,29.48,4,1,7,0.00
2013-9-23,38.6,29.8,20.8,36.9,28.0,19.1,97,93,87,29.75,29.62,5,0,8,0.12
2013-9-24,40.5,34.2,30.1,38.5,32.6,29.4,98,94,79,29.77,29.47,6,1,10,0.13
2013-9-25,42.6,35.8,28.3,36.5,31.4,24.6,96,85,66,29.68,29.41,9,2,12,0.01
2013-9-26,39.8,31.6,22.4,29.7,25.6,20.7,100,79,59,29.70,29.33,10,4,12,0.00
2013-9-27,42.7,35.4,28.3,30.4,27.0,23.6,89,72,48,29.66,29.32,12,5,20,0.00
2013-9-28,41.0,33.6,28.2,29.4,26.8,24.1,92,77,56,29.88,29.66,8,3,16,0.00
2013-9-29,41.7,32.9,25.6,27.8,24.3,21.2,88,71,49,30.02,29.88,8,2,11,0.00
2013-9-30,40.8,27.0,14.6,29.3,20.2,12.5,94,78,50,30.10,30.01,5,1,6,0.00
2013-10-1,42.2,25.1,11.7,26.2,17.8,9.3,92,76,39,30.11,30.02,4,1,7,0.00
2013-10-2,35.6,23.2,12.3,26.2,18.5,9.9,95,83,63,30.04,29.93,10,2,13,0.00
2013-10-3,36.8,28.2,16.3,28.1,23.3,14.0,94,82,67,29.94,29.84,4,1,6,0.00
2013-10-4,40.1,26.4,13.5,30.9,22.3,11.4,94,85,66,29.93,29.71,5,1,8,0.00
2013-10-5,40.4,35.7,31.4,39.6,34.3,29.9,97,94,90,29.71,29.23,14,8,21,1.14
2013-10-6,40.7,39.7,37.4,40.1,39.1,36.4,98,97,95,29.50,29.24,7,4,11,0.21
2013-10-7,40.2,37.7,34.4,39.2,36.3,33.6,99,95,82,29.58,29.22,11,4,15,0.10
2013-10-8,41.4,37.7,36.3,36.8,34.6,33.0,94,89,80,29.22,28.72,19,9,25,1.04
2013-10-9,43.5,35.3,27.9,33.1,30.4,25.6,95,83,63,29.54,29.12,6,1,10,0.00
2013-10-10,42.1,38.3,33.6,41.3,36.7,29.6,100,94,82,29.45,29.14,15,9,24,0.83
2013-10-11,41.5,40.1,33.0,41.0,39.7,32.2,100,99,97,29.56,29.22,7,3,12,0.32
2013-10-12,43.3,39.5,31.3,41.7,37.0,30.8,100,91,73,29.56,29.39,15,8,19,0.13
2013-10-13,43.7,42.0,39.3,41.8,40.4,38.6,98,94,92,29.40,29.32,9,3,14,0.05
2013-10-14,39.7,37.6,35.8,39.2,37.0,34.9,99,98,94,29.53,29.36,6,2,9,0.05
2013-10-15,43.3,41.9,38.5,43.0,41.4,37.3,99,98,95,29.60,29.43,8,4,12,0.39
2013-10-16,44.1,43.2,42.2,43.6,42.4,41.3,99,97,94,29.62,29.58,11,9,16,0.24
2013-10-17,43.1,37.3,32.0,42.4,36.1,30.7,100,95,86,29.59,29.48,11,6,15,0.05
2013-10-18,40.8,34.1,28.9,39.5,31.7,27.1,98,91,75,29.49,29.11,12,3,18,0.09
2013-10-19,43.4,41.7,40.0,41.0,39.7,38.4,97,93,87,29.17,29.09,7,4,11,0.06
2013-10-20,41.6,40.1,38.2,40.5,38.7,36.5,98,95,86,29.60,29.18,12,7,19,0.39
2013-10-21,39.3,37.8,34.8,37.2,35.8,33.2,100,93,89,29.82,29.60,10,7,17,0.30
2013-10-22,40.0,37.7,35.5,37.1,35.7,33.9,95,92,88,30.10,29.82,10,5,13,0.01
2013-10-23,36.2,30.6,27.0,33.7,29.2,26.0,98,94,80,30.11,30.06,4,0,5,0.01
2013-10-24,-200.0,0.0,200.0,-99.9,-99.9,-99.9,0,0,100,0.00,-32.77,0,-999,0,0.00
2013-10-25,-200.0,0.0,200.0,-99.9,-99.9,-99.9,0,0,100,0.00,-32.77,0,-999,0,0.00
2013-10-26,42.8,20.7,38.7,40.5,-29.8,-99.9,98,46,71,30.04,-32.77,12,-487,15,0.09
2013-10-27,42.8,39.6,34.8,40.5,37.5,32.8,97,92,68,29.81,29.47,16,8,24,0.54
2013-10-28,40.4,36.4,31.4,38.2,34.2,28.8,98,91,84,29.47,29.14,4,1,8,0.00
2013-10-29,37.7,30.2,20.1,32.7,27.4,18.7,97,89,72,29.46,29.25,8,1,10,0.00
2013-10-30,31.3,20.4,13.0,26.1,17.8,11.1,95,90,74,29.50,29.39,4,0,6,0.01
2013-10-31,28.5,18.0,9.2,27.0,16.4,7.0,95,93,90,29.85,29.50,2,0,3,0.00
2013-11-1,32.9,27.8,22.7,28.5,25.2,21.5,97,90,71,29.97,29.85,8,2,11,0.00
2013-11-2,30.7,27.0,16.7,27.1,23.4,14.0,94,87,77,29.86,29.57,6,2,8,0.00
2013-11-3,33.2,30.2,19.8,31.4,27.3,17.9,97,89,79,29.57,29.28,5,1,7,0.00
2013-11-4,31.2,26.1,11.6,30.4,23.0,8.8,97,88,77,29.78,29.29,8,2,12,0.01
2013-11-5,22.2,16.1,10.1,17.0,12.3,7.3,95,85,61,30.28,29.78,11,1,14,0.00
2013-11-6,29.7,22.9,17.5,25.1,13.7,8.4,93,68,54,30.25,29.45,22,12,31,0.00
2013-11-7,33.4,29.4,26.5,32.4,28.2,25.0,100,95,92,29.69,29.43,21,11,30,0.02
2013-11-8,38.6,31.7,26.6,38.2,30.0,24.1,99,94,84,29.69,29.40,11,5,22,0.25
2013-11-9,39.0,38.0,36.0,38.7,37.4,34.7,99,98,95,29.42,29.08,18,11,25,0.49
2013-11-11,30.1,26.2,23.6,29.1,23.8,20.4,96,90,85,30.21,30.11,8,2,11,0.00
2013-11-12,34.6,31.3,29.5,34.1,30.5,28.3,99,97,95,30.11,29.50,10,7,19,0.07
2013-11-18,7.2,4.4,1.3,4.4,1.3,-1.4,88,86,85,30.27,30.23,3,1,3,0.00
2013-11-19,10.4,5.0,-4.5,6.6,-3.0,-9.8,91,70,49,30.31,30.19,14,3,20,0.00
2013-11-20,10.5,1.6,-4.8,2.7,-3.8,-9.9,90,78,59,30.32,30.19,8,1,10,0.00
2013-11-21,16.3,11.9,3.8,0.7,-2.7,-7.8,73,52,43,30.19,29.55,18,10,26,0.00
2013-11-22,17.8,14.4,11.4,11.1,5.2,-6.1,89,68,44,29.55,29.26,24,9,27,0.00
2013-11-23,15.9,14.3,12.7,12.5,11.2,9.8,90,87,78,29.79,29.31,8,3,12,0.00
2013-11-24,15.2,6.1,-6.5,10.5,2.2,-9.7,100,84,66,30.03,29.80,14,2,18,0.00
2013-11-25,22.9,16.8,11.8,10.3,6.5,4.1,77,64,53,30.02,29.93,15,3,19,0.00
2013-11-26,22.9,15.5,10.0,18.7,11.8,6.3,100,85,73,30.02,29.98,7,1,11,0.00
2013-11-27,21.1,12.7,-4.2,17.9,9.0,-7.1,94,85,77,30.19,29.99,7,1,12,0.00
2013-11-28,3.3,-5.2,-11.6,0.8,-8.2,-15.1,98,86,83,30.20,30.16,3,0,4,0.00
2013-11-29,12.8,6.1,-5.3,10.9,3.8,-8.4,92,90,85,30.40,30.18,2,0,3,0.00
2013-11-30,29.2,20.5,12.7,28.5,19.3,10.6,97,95,91,30.51,30.39,2,0,3,0.00
2013-12-1,29.7,25.8,13.9,29.0,24.5,12.0,98,95,88,30.56,30.44,9,1,12,0.00
2013-12-2,26.2,20.8,12.4,24.7,18.4,10.3,96,90,81,30.47,30.39,11,6,16,0.00
2013-12-3,27.5,26.3,24.2,26.5,25.3,23.2,97,96,94,30.45,30.40,10,3,13,0.00
2013-12-4,36.3,31.1,25.0,32.6,28.9,24.3,98,92,83,30.41,30.00,17,7,24,0.00
2013-12-5,38.0,34.7,31.0,37.2,33.3,29.6,98,94,85,30.06,29.96,16,10,23,0.63
2013-12-6,39.3,35.6,32.9,38.9,35.0,32.2,99,98,96,30.10,29.98,11,5,15,0.48
2013-12-7,35.8,31.2,17.9,35.3,30.4,16.7,99,97,94,30.33,30.01,6,1,8,0.23
2013-12-8,21.5,14.5,9.2,20.5,13.1,7.1,96,94,91,30.36,30.25,0,0,0,0.00
2013-12-9,22.5,15.0,10.0,21.5,13.6,8.1,97,94,91,30.33,30.25,0,0,0,0.00
2013-12-10,27.0,20.7,12.8,19.3,14.5,9.5,96,78,61,30.40,30.33,19,3,24,0.00
2013-12-11,21.8,17.3,4.8,9.5,2.4,-1.3,77,52,41,30.42,30.38,21,8,26,0.00
2013-12-12,16.4,9.8,0.5,2.8,-0.7,-3.5,89,63,46,30.39,30.11,9,2,11,0.00
2013-12-13,13.8,8.2,1.6,1.2,-1.9,-4.9,77,63,50,30.11,29.73,6,2,10,0.00
2013-12-14,12.3,9.3,7.0,6.1,2.3,-0.3,81,73,61,29.86,29.70,13,6,18,0.00
2013-12-15,13.5,7.7,-1.1,7.6,2.8,-4.0,89,80,73,30.29,29.86,13,3,15,0.00
2013-12-16,24.4,13.0,-0.1,22.9,10.9,-2.6,100,91,89,30.31,30.11,7,1,11,0.00
2013-12-17,23.8,17.5,13.2,22.1,15.4,10.7,100,91,85,30.12,29.98,5,1,9,0.00
2013-12-18,21.0,10.5,-3.5,17.7,6.5,-6.6,94,84,72,30.01,29.76,23,5,30,0.00
2013-12-19,17.9,13.7,10.8,7.4,5.6,2.9,75,69,62,29.77,29.54,24,13,32,0.00
2013-12-20,19.9,17.2,14.1,17.1,12.1,6.6,93,80,63,29.56,29.29,15,3,16,0.00
2013-12-21,19.4,15.1,8.2,17.3,11.9,4.1,93,87,82,29.72,29.29,6,3,11,0.00
2013-12-22,10.0,5.3,-3.0,6.5,1.8,-6.7,89,85,79,29.90,29.73,5,1,9,0.00
2013-12-23,8.7,-3.9,-11.1,5.4,-7.2,-14.4,90,85,81,30.22,29.90,5,1,6,0.00
2013-12-24,16.3,3.0,-14.5,0.7,-5.6,-18.4,90,68,41,30.21,30.07,16,4,20,0.00
2013-12-25,16.5,7.3,-5.5,-0.3,-4.9,-11.1,81,58,40,30.08,30.01,19,4,22,0.00
2013-12-26,18.8,12.0,5.7,0.1,-5.1,-10.5,51,45,37,30.09,29.98,23,8,29,0.01
2013-12-27,8.9,2.0,-11.9,-9.1,-12.2,-17.7,78,52,39,30.10,30.05,18,6,24,0.00
2013-12-28,-5.3,-14.7,-19.7,-13.5,-19.7,-24.2,92,78,63,30.05,29.97,6,1,6,0.00
2013-12-29,20.9,-4.9,-18.9,18.5,-9.1,-23.6,92,81,76,29.99,29.71,9,2,11,0.00
2013-12-30,24.7,19.8,11.8,20.6,16.6,9.6,100,87,75,29.71,29.54,6,1,8,0.00
2013-12-31,24.4,18.6,10.3,15.6,11.9,6.4,86,75,63,29.57,29.33,7,2,9,0.00
2014-1-1,24.5,16.7,10.2,15.1,12.1,6.6,89,82,67,29.49,29.24,5,1,7,0.00
2014-1-2,20.6,17.2,14.5,18.5,15.0,12.4,93,91,88,29.66,29.49,5,1,8,0.00